Location: Brno
(49.2000°N, 16.6330°E)
Time: 21:49:09
(UTC+02:00)

Vanguard 3 - Pass Details

Date: 30 July 2021
Orbit: 510 x 3260 km, 33.3° (Epoch: 22 September)

Event Time Altitude Azimuth Distance (km) Brightness Sun altitude
Rises 23:48:28 0° 270° (W) 7,041 12.2 -20.4°
Reaches altitude 10° 23:53:34 10° 263° (W) 6,152 11.7 -20.7°
Maximum altitude 00:10:30 38° 206° (SSW) 4,112 10.3 -21.4°
Enters shadow 00:17:49 28° 167° (SSE) 4,276 10.1 -21.6°
